TimeBST,TemperatureF,Dew PointF,Humidity,Sea Level PressureIn,VisibilityMPH,Wind Direction,Wind SpeedMPH,Gust SpeedMPH,PrecipitationIn,Events,Conditions,WindDirDegrees,DateUTC
12:20 AM,60.8,53.6,77,29.92,3.7,NW,6.9,-,N/A,,Mostly Cloudy,310,2013-05-20 23:20:00
12:50 AM,60,56,81,29.92,4,NNW,8.1,,,,Light Haze,330,2013-05-20 23:50:00
12:50 AM,60.8,53.6,77,29.92,3.7,NNW,9.2,-,N/A,,Mostly Cloudy,330,2013-05-20 23:50:00
1:20 AM,60.8,51.8,72,29.92,3.1,NNW,8.1,-,N/A,,Overcast,330,2013-05-21 00:20:00
1:50 AM,60.8,51.8,72,29.92,3.1,NNW,6.9,-,N/A,,Mostly Cloudy,340,2013-05-21 00:50:00
2:20 AM,59.0,48.2,67,29.92,6.2,North,8.1,-,N/A,,Overcast,360,2013-05-21 01:20:00
2:50 AM,59.0,46.4,63,29.92,6.2,North,9.2,-,N/A,,Mostly Cloudy,360,2013-05-21 01:50:00
3:20 AM,59.0,46.4,63,29.92,6.2,North,9.2,-,N/A,,Mostly Cloudy,360,2013-05-21 02:20:00
3:50 AM,59,53,73,29.93,9,North,10.4,,,,Mostly Cloudy,0,2013-05-21 02:50:00
3:50 AM,59.0,46.4,63,29.92,6.2,North,8.1,-,N/A,,Scattered Clouds,360,2013-05-21 02:50:00
4:20 AM,57.2,46.4,67,29.92,6.2,North,8.1,-,N/A,,Mostly Cloudy,360,2013-05-21 03:20:00
4:50 AM,57.2,46.4,67,29.92,5.6,North,8.1,-,N/A,,Mostly Cloudy,360,2013-05-21 03:50:00
5:20 AM,57.2,51.8,82,29.95,5.6,North,10.4,-,N/A,,Mostly Cloudy,10,2013-05-21 04:20:00
5:50 AM,57.2,50.0,77,29.95,5.6,North,8.1,-,N/A,,Mostly Cloudy,350,2013-05-21 04:50:00
6:20 AM,55.4,50.0,82,29.95,5.6,North,10.4,-,N/A,,Mostly Cloudy,360,2013-05-21 05:20:00
6:50 AM,56,51,76,29.95,7,North,10.4,,,,,0,2013-05-21 05:50:00
6:50 AM,55.4,50.0,82,29.95,6.2,North,9.2,-,N/A,,Mostly Cloudy,360,2013-05-21 05:50:00
7:50 AM,55.4,50.0,82,29.98,6.2,North,10.4,-,N/A,,Mostly Cloudy,360,2013-05-21 06:50:00
8:20 AM,57.2,48.2,72,29.98,6.2,North,10.4,-,N/A,,Mostly Cloudy,360,2013-05-21 07:20:00
8:50 AM,55.4,46.4,72,29.98,5.0,North,9.2,-,N/A,,Mostly Cloudy,360,2013-05-21 07:50:00
9:20 AM,55.4,50.0,82,29.98,4.3,North,8.1,-,N/A,,Mostly Cloudy,10,2013-05-21 08:20:00
9:50 AM,55,49,74,30.01,11,North,9.2,,,,Partly Cloudy,0,2013-05-21 08:50:00
9:50 AM,55.4,46.4,72,30.01,6.2,North,9.2,-,N/A,,Mostly Cloudy,10,2013-05-21 08:50:00
10:20 AM,55.4,44.6,67,30.01,6.2,North,9.2,-,N/A,,Mostly Cloudy,360,2013-05-21 09:20:00
10:50 AM,55.4,42.8,63,30.01,6.2,North,8.1,-,N/A,,Overcast,360,2013-05-21 09:50:00
11:20 AM,55.4,44.6,67,30.01,6.2,North,8.1,-,N/A,,Mostly Cloudy,360,2013-05-21 10:20:00
11:50 AM,55.4,42.8,63,30.04,6.2,North,6.9,-,N/A,,Mostly Cloudy,10,2013-05-21 10:50:00
12:20 PM,55.4,42.8,63,30.04,6.2,North,6.9,-,N/A,,Mostly Cloudy,360,2013-05-21 11:20:00
12:50 PM,56,48,66,30.04,14,North,9.2,,,,Mostly Cloudy,10,2013-05-21 11:50:00
12:50 PM,57.2,46.4,67,30.04,6.2,North,6.9,-,N/A,,Mostly Cloudy,10,2013-05-21 11:50:00
1:20 PM,55.4,46.4,72,30.04,6.2,North,8.1,-,N/A,,Mostly Cloudy,360,2013-05-21 12:20:00
1:50 PM,55.4,46.4,72,30.04,6.2,NNE,8.1,-,N/A,,Mostly Cloudy,20,2013-05-21 12:50:00
2:20 PM,55.4,46.4,72,30.04,6.2,NNE,6.9,-,N/A,,Mostly Cloudy,20,2013-05-21 13:20:00
2:50 PM,55.4,44.6,67,30.04,6.2,North,6.9,-,N/A,,Mostly Cloudy,350,2013-05-21 13:50:00
3:20 PM,57.2,46.4,67,30.04,6.2,North,6.9,-,N/A,,Mostly Cloudy,360,2013-05-21 14:20:00
3:50 PM,58,46,55,30.04,12,North,9.2,,,,Mostly Cloudy,0,2013-05-21 14:50:00
3:50 PM,57.2,44.6,63,30.04,6.2,North,8.1,-,N/A,,Mostly Cloudy,360,2013-05-21 14:50:00
4:20 PM,57.2,46.4,67,30.04,6.2,NNE,6.9,-,N/A,,Mostly Cloudy,30,2013-05-21 15:20:00
4:50 PM,57.2,46.4,67,30.04,6.2,North,6.9,-,N/A,,Mostly Cloudy,10,2013-05-21 15:50:00
5:20 PM,59.0,46.4,63,30.04,6.2,North,6.9,-,N/A,,Mostly Cloudy,360,2013-05-21 16:20:00
5:50 PM,57.2,46.4,67,30.04,6.2,NNE,5.8,-,N/A,,Mostly Cloudy,30,2013-05-21 16:50:00
6:20 PM,57.2,42.8,59,30.04,6.2,NE,5.8,-,N/A,,Partly Cloudy,50,2013-05-21 17:20:00
6:50 PM,58,46,55,30.04,14,NNE,4.6,,,,,20,2013-05-21 17:50:00
6:50 PM,57.2,42.8,59,30.04,6.2,North,4.6,-,N/A,,Partly Cloudy,360,2013-05-21 17:50:00
7:20 PM,57.2,42.8,59,30.04,6.2,North,5.8,-,N/A,,Scattered Clouds,360,2013-05-21 18:20:00
7:50 PM,57.2,42.8,59,30.04,6.2,North,4.6,-,N/A,,Partly Cloudy,350,2013-05-21 18:50:00
8:20 PM,57.2,42.8,59,30.04,6.2,Calm,Calm,-,N/A,,Partly Cloudy,0,2013-05-21 19:20:00
8:50 PM,57.2,39.2,51,30.04,-9999.0,Variable,2.3,-,N/A,,Clear,0,2013-05-21 19:50:00
9:20 PM,55.4,39.2,54,30.06,6.2,Variable,2.3,-,N/A,,Mostly Cloudy,0,2013-05-21 20:20:00
9:50 PM,56,48,66,30.08,7,NE,2.3,,,Rain,Light Rain Showers,40,2013-05-21 20:50:00
9:50 PM,55.4,39.2,54,30.06,6.2,Variable,3.5,-,N/A,,Mostly Cloudy,0,2013-05-21 20:50:00
10:20 PM,55.4,41.0,58,30.06,5.0,Variable,3.5,-,N/A,Rain,Light Rain Showers,0,2013-05-21 21:20:00
10:50 PM,53.6,42.8,67,30.06,6.2,North,3.5,-,N/A,,Mostly Cloudy,360,2013-05-21 21:50:00
11:20 PM,53.6,50.0,88,30.06,6.2,North,4.6,-,N/A,,Mostly Cloudy,350,2013-05-21 22:20:00
11:50 PM,53.6,46.4,77,30.09,6.2,Variable,3.5,-,N/A,,Mostly Cloudy,0,2013-05-21 22:50:00